Tracking 19219 objects as of 21-Jul-2018
HD Live streaming from Space Station
objects crossing your sky now

CAPE 1

Track CAPE 1 now!
10-day predictions
CAPE 1 is classified as:


NORAD ID: 31130
Int'l Code: 2007-012P
Perigee: 643.4 km
Apogee: 781.1 km
Inclination: 98.1 °
Period: 98.9 minutes
Semi major axis: 7083 km
RCS: 0.0406 m2 (small)
Launch date: April 17, 2007
Source: United States (US)
Launch site: TYURATAM MISSILE AND SPACE COMPLEX (TTMTR)
Uplink (MHz):
Downlink (MHz): 435.245
Beacon (MHz): 435.248
Mode: 1200bps AFSK
Call sign: K5USL
Status: Inactive

aabbcc
Your satellite tracking list
Your tracking list is empty




NASA's NSSDC Master Catalog

Two Line Element Set (TLE):
1 31130U 07012P   18201.82930116  .00000116  00000-0  35000-4 0  9990
2 31130  98.1251 144.6437 0097253  42.1070 318.7548 14.56310201597263
Source of the keplerian elements: AFSPC